Time,TemperatureF,DewpointF,PressureIn,WindDirection,WindDirectionDegrees,WindSpeedMPH,WindSpeedGustMPH,Humidity,HourlyPrecipIn,Conditions,Clouds,dailyrainin,SoftwareType,DateUTC
2013-07-23 00:04:00,73.8,43.6,29.82,West,277,0.0,6.0,34,0.00,,,-99.99,Weather View 32 v60,2013-07-23 04:04:00,
2013-07-23 00:14:00,73.6,43.4,29.79,West,277,0.0,6.0,34,0.00,,,-99.99,Weather View 32 v60,2013-07-23 04:14:00,
2013-07-23 00:24:00,73.4,44.0,29.79,West,277,3.0,6.0,35,0.00,,,-99.99,Weather View 32 v60,2013-07-23 04:24:00,
2013-07-23 00:34:00,73.4,44.0,29.79,West,277,0.0,6.0,35,0.00,,,-99.99,Weather View 32 v60,2013-07-23 04:34:00,
2013-07-23 00:44:00,73.2,43.8,29.79,West,277,0.0,6.0,35,0.00,,,-99.99,Weather View 32 v60,2013-07-23 04:44:00,
2013-07-23 00:54:00,73.0,43.7,29.79,West,277,0.0,6.0,35,0.00,,,-99.99,Weather View 32 v60,2013-07-23 04:54:00,
2013-07-23 01:04:00,73.0,44.4,29.79,West,277,0.0,4.0,36,0.00,,,-99.99,Weather View 32 v60,2013-07-23 05:04:00,
2013-07-23 01:09:00,73.0,44.4,29.79,West,277,0.0,4.0,36,0.00,,,-99.99,Weather View 32 v60,2013-07-23 05:09:00,
2013-07-23 01:19:00,72.9,44.3,29.79,West,277,0.0,4.0,36,0.00,,,-99.99,Weather View 32 v60,2013-07-23 05:19:00,
2013-07-23 01:29:00,72.7,44.1,29.79,West,277,0.0,0.0,36,0.00,,,-99.99,Weather View 32 v60,2013-07-23 05:29:00,
2013-07-23 01:39:00,72.7,44.1,29.76,West,277,0.0,3.0,36,0.00,,,-99.99,Weather View 32 v60,2013-07-23 05:39:00,
2013-07-23 01:45:00,72.7,44.8,29.76,West,277,0.0,3.0,37,0.00,,,-99.99,Weather View 32 v60,2013-07-23 05:45:00,
2013-07-23 01:54:00,72.7,44.8,29.79,West,277,0.0,3.0,37,0.00,,,-99.99,Weather View 32 v60,2013-07-23 05:54:00,
2013-07-23 01:59:00,72.7,44.8,29.79,West,277,0.0,3.0,37,0.00,,,-99.99,Weather View 32 v60,2013-07-23 05:59:00,
2013-07-23 02:04:00,72.7,44.8,29.79,WNW,288,0.0,4.0,37,0.00,,,-99.99,Weather View 32 v60,2013-07-23 06:04:00,
2013-07-23 02:14:00,72.7,45.5,29.76,West,281,0.0,5.0,38,0.00,,,-99.99,Weather View 32 v60,2013-07-23 06:14:00,
2013-07-23 02:24:00,72.5,45.4,29.76,West,281,0.0,5.0,38,0.00,,,-99.99,Weather View 32 v60,2013-07-23 06:24:00,
2013-07-23 02:34:00,72.5,45.4,29.76,West,279,0.0,5.0,38,0.00,,,-99.99,Weather View 32 v60,2013-07-23 06:34:00,
2013-07-23 02:39:00,72.5,46.1,29.76,West,280,0.0,5.0,39,0.00,,,-99.99,Weather View 32 v60,2013-07-23 06:39:00,
2013-07-23 02:44:00,72.5,46.1,29.76,West,279,0.0,5.0,39,0.00,,,-99.99,Weather View 32 v60,2013-07-23 06:44:00,
2013-07-23 02:54:00,72.5,46.7,29.76,WNW,292,3.0,5.0,40,0.00,,,-99.99,Weather View 32 v60,2013-07-23 06:54:00,
2013-07-23 03:04:00,72.7,46.9,29.76,NW,304,0.0,5.0,40,0.00,,,-99.99,Weather View 32 v60,2013-07-23 07:04:00,
2013-07-23 03:09:00,72.5,46.7,29.76,NW,304,0.0,5.0,40,0.00,,,-99.99,Weather View 32 v60,2013-07-23 07:09:00,
2013-07-23 03:19:00,72.1,46.4,29.76,NW,304,0.0,5.0,40,0.00,,,-99.99,Weather View 32 v60,2013-07-23 07:19:00,
2013-07-23 03:24:00,72.1,46.4,29.76,NW,304,0.0,5.0,40,0.00,,,-99.99,Weather View 32 v60,2013-07-23 07:24:00,
2013-07-23 03:29:00,72.1,46.4,29.76,WNW,288,0.0,5.0,40,0.00,,,-99.99,Weather View 32 v60,2013-07-23 07:29:00,
2013-07-23 03:34:00,72.1,46.4,29.76,WNW,291,4.0,5.0,40,0.00,,,-99.99,Weather View 32 v60,2013-07-23 07:34:00,
2013-07-23 03:44:00,72.3,46.6,29.76,WNW,301,3.0,5.0,40,0.00,,,-99.99,Weather View 32 v60,2013-07-23 07:44:00,
2013-07-23 03:49:00,72.3,46.6,29.76,WNW,291,3.0,7.0,40,0.00,,,-99.99,Weather View 32 v60,2013-07-23 07:49:00,
2013-07-23 03:59:00,72.3,46.6,29.76,WNW,283,5.0,7.0,40,0.00,,,-99.99,Weather View 32 v60,2013-07-23 07:59:00,
2013-07-23 04:04:00,72.3,46.6,29.76,WNW,296,4.0,7.0,40,0.00,,,-99.99,Weather View 32 v60,2013-07-23 08:04:00,
2013-07-23 04:09:00,72.3,46.6,29.76,West,273,4.0,7.0,40,0.00,,,-99.99,Weather View 32 v60,2013-07-23 08:09:00,
2013-07-23 04:19:00,72.3,45.9,29.76,WNW,282,5.0,7.0,39,0.00,,,-99.99,Weather View 32 v60,2013-07-23 08:19:00,
2013-07-23 04:29:00,72.5,46.1,29.79,NNW,337,4.0,7.0,39,0.00,,,-99.99,Weather View 32 v60,2013-07-23 08:29:00,
2013-07-23 04:39:00,72.3,45.2,29.79,WNW,288,5.0,7.0,38,0.00,,,-99.99,Weather View 32 v60,2013-07-23 08:39:00,
2013-07-23 04:44:00,72.1,45.1,29.79,WNW,288,5.0,7.0,38,0.00,,,-99.99,Weather View 32 v60,2013-07-23 08:44:00,
2013-07-23 04:49:00,72.1,45.1,29.79,NW,308,5.0,7.0,38,0.00,,,-99.99,Weather View 32 v60,2013-07-23 08:49:00,
2013-07-23 04:59:00,72.1,45.1,29.79,WNW,288,6.0,7.0,38,0.00,,,-99.99,Weather View 32 v60,2013-07-23 08:59:00,
2013-07-23 05:04:00,72.1,44.4,29.79,WSW,258,4.0,7.0,37,0.00,,,-99.99,Weather View 32 v60,2013-07-23 09:04:00,
2013-07-23 05:14:00,72.0,44.2,29.79,WSW,256,3.0,7.0,37,0.00,,,-99.99,Weather View 32 v60,2013-07-23 09:14:00,
2013-07-23 05:19:00,71.8,44.0,29.79,West,270,3.0,7.0,37,0.00,,,-99.99,Weather View 32 v60,2013-07-23 09:19:00,
2013-07-23 05:24:00,71.8,44.0,29.79,West,271,3.0,7.0,37,0.00,,,-99.99,Weather View 32 v60,2013-07-23 09:24:00,
2013-07-23 05:34:00,71.6,43.9,29.79,WNW,287,4.0,7.0,37,0.00,,,-99.99,Weather View 32 v60,2013-07-23 09:34:00,
2013-07-23 05:44:00,71.6,43.9,29.79,West,280,0.0,7.0,37,0.00,,,-99.99,Weather View 32 v60,2013-07-23 09:44:00,
2013-07-23 05:49:00,71.4,43.7,29.79,WNW,290,4.0,7.0,37,0.00,,,-99.99,Weather View 32 v60,2013-07-23 09:49:00,
2013-07-23 05:54:00,71.4,43.7,29.79,WNW,290,0.0,7.0,37,0.00,,,-99.99,Weather View 32 v60,2013-07-23 09:54:00,
2013-07-23 05:59:00,71.2,43.6,29.79,NNW,338,0.0,7.0,37,0.00,,,-99.99,Weather View 32 v60,2013-07-23 09:59:00,
2013-07-23 06:09:00,70.9,42.5,29.79,NNW,338,0.0,6.0,36,0.00,,,-99.99,Weather View 32 v60,2013-07-23 10:09:00,
2013-07-23 06:14:00,70.9,42.5,29.79,NNW,338,0.0,6.0,36,0.00,,,-99.99,Weather View 32 v60,2013-07-23 10:14:00,
2013-07-23 06:19:00,70.7,42.4,29.79,NNW,338,0.0,6.0,36,0.00,,,-99.99,Weather View 32 v60,2013-07-23 10:19:00,
2013-07-23 06:29:00,70.7,43.1,29.79,NNW,338,0.0,6.0,37,0.00,,,-99.99,Weather View 32 v60,2013-07-23 10:29:00,
2013-07-23 06:39:00,70.2,41.9,29.79,NE,55,0.0,5.0,36,0.00,,,-99.99,Weather View 32 v60,2013-07-23 10:39:00,
2013-07-23 06:48:00,70.0,41.7,29.79,NE,49,0.0,5.0,36,0.00,,,-99.99,Weather View 32 v60,2013-07-23 10:48:00,
2013-07-23 06:54:00,70.0,41.7,29.79,NE,49,0.0,5.0,36,0.00,,,-99.99,Weather View 32 v60,2013-07-23 10:54:00,
2013-07-23 07:04:00,70.0,42.4,29.79,WNW,288,0.0,5.0,37,0.00,,,-99.99,Weather View 32 v60,2013-07-23 11:04:00,
2013-07-23 07:09:00,70.2,42.6,29.79,WNW,289,0.0,5.0,37,0.00,,,-99.99,Weather View 32 v60,2013-07-23 11:09:00,
2013-07-23 07:14:00,70.2,42.6,29.79,WNW,288,0.0,5.0,37,0.00,,,-99.99,Weather View 32 v60,2013-07-23 11:14:00,
2013-07-23 07:24:00,70.0,42.4,29.79,WNW,289,0.0,5.0,37,0.00,,,-99.99,Weather View 32 v60,2013-07-23 11:24:00,
2013-07-23 07:34:00,70.0,42.4,29.79,WNW,288,0.0,5.0,37,0.00,,,-99.99,Weather View 32 v60,2013-07-23 11:34:00,
2013-07-23 07:39:00,70.2,42.6,29.79,WNW,288,0.0,5.0,37,0.00,,,-99.99,Weather View 32 v60,2013-07-23 11:39:00,
2013-07-23 07:48:00,70.2,42.6,29.79,WNW,289,0.0,4.0,37,0.00,,,-99.99,Weather View 32 v60,2013-07-23 11:48:00,
2013-07-23 07:54:00,70.2,42.6,29.79,WNW,288,0.0,4.0,37,0.00,,,-99.99,Weather View 32 v60,2013-07-23 11:54:00,
2013-07-23 07:59:00,70.2,42.6,29.79,WNW,289,4.0,4.0,37,0.00,,,-99.99,Weather View 32 v60,2013-07-23 11:59:00,
2013-07-23 08:04:00,70.3,42.8,29.79,WNW,288,0.0,4.0,37,0.00,,,-99.99,Weather View 32 v60,2013-07-23 12:04:00,
2013-07-23 08:09:00,70.3,42.8,29.79,WNW,288,0.0,4.0,37,0.00,,,-99.99,Weather View 32 v60,2013-07-23 12:09:00,
2013-07-23 08:14:00,70.5,42.9,29.79,WNW,288,0.0,4.0,37,0.00,,,-99.99,Weather View 32 v60,2013-07-23 12:14:00,
2013-07-23 08:19:00,70.7,43.1,29.79,WNW,288,0.0,4.0,37,0.00,,,-99.99,Weather View 32 v60,2013-07-23 12:19:00,
2013-07-23 08:24:00,70.7,43.1,29.79,WNW,289,0.0,4.0,37,0.00,,,-99.99,Weather View 32 v60,2013-07-23 12:24:00,
2013-07-23 08:34:00,71.2,43.6,29.79,WNW,293,6.0,6.0,37,0.00,,,-99.99,Weather View 32 v60,2013-07-23 12:34:00,
2013-07-23 08:39:00,71.6,44.6,29.79,WNW,291,5.0,8.0,38,0.00,,,-99.99,Weather View 32 v60,2013-07-23 12:39:00,
2013-07-23 08:44:00,72.1,45.1,29.79,WNW,282,7.0,8.0,38,0.00,,,-99.99,Weather View 32 v60,2013-07-23 12:44:00,
2013-07-23 08:49:00,72.3,45.2,29.79,WNW,301,7.0,9.0,38,0.00,,,-99.99,Weather View 32 v60,2013-07-23 12:49:00,
2013-07-23 08:54:00,72.7,44.8,29.79,West,277,6.0,10.0,37,0.00,,,-99.99,Weather View 32 v60,2013-07-23 12:54:00,
2013-07-23 09:04:00,73.2,45.3,29.79,WNW,293,3.0,11.0,37,0.00,,,-99.99,Weather View 32 v60,2013-07-23 13:04:00,
2013-07-23 09:14:00,73.8,45.1,29.79,NW,316,7.0,11.0,36,0.00,,,-99.99,Weather View 32 v60,2013-07-23 13:14:00,
2013-07-23 09:19:00,73.9,45.2,29.79,WNW,282,8.0,11.0,36,0.00,,,-99.99,Weather View 32 v60,2013-07-23 13:19:00,
2013-07-23 09:24:00,74.1,44.6,29.79,WNW,282,7.0,11.0,35,0.00,,,-99.99,Weather View 32 v60,2013-07-23 13:24:00,
2013-07-23 09:29:00,74.5,45.0,29.79,WNW,295,10.0,11.0,35,0.00,,,-99.99,Weather View 32 v60,2013-07-23 13:29:00,
2013-07-23 09:34:00,74.7,44.4,29.79,WSW,255,4.0,11.0,34,0.00,,,-99.99,Weather View 32 v60,2013-07-23 13:34:00,
2013-07-23 09:44:00,75.0,44.7,29.82,WNW,300,4.0,11.0,34,0.00,,,-99.99,Weather View 32 v60,2013-07-23 13:44:00,
2013-07-23 09:50:00,75.0,43.9,29.82,WNW,295,5.0,11.0,33,0.00,,,-99.99,Weather View 32 v60,2013-07-23 13:50:00,
2013-07-23 09:59:00,75.4,44.2,29.79,West,279,7.0,11.0,33,0.00,,,-99.99,Weather View 32 v60,2013-07-23 13:59:00,
2013-07-23 10:04:00,75.7,44.5,29.79,WNW,287,9.0,10.0,33,0.00,,,-99.99,Weather View 32 v60,2013-07-23 14:04:00,
2013-07-23 10:09:00,75.9,44.7,29.79,WNW,300,6.0,10.0,33,0.00,,,-99.99,Weather View 32 v60,2013-07-23 14:09:00,
2013-07-23 10:14:00,76.3,44.2,29.79,West,278,5.0,10.0,32,0.00,,,-99.99,Weather View 32 v60,2013-07-23 14:14:00,
2013-07-23 10:19:00,76.5,44.3,29.79,West,263,6.0,10.0,32,0.00,,,-99.99,Weather View 32 v60,2013-07-23 14:19:00,
2013-07-23 10:24:00,76.8,43.8,29.79,West,278,7.0,11.0,31,0.00,,,-99.99,Weather View 32 v60,2013-07-23 14:24:00,
2013-07-23 10:34:00,77.5,44.4,29.79,WNW,282,4.0,11.0,31,0.00,,,-99.99,Weather View 32 v60,2013-07-23 14:34:00,
2013-07-23 10:44:00,78.3,44.2,29.82,West,276,9.0,11.0,30,0.00,,,-99.99,Weather View 32 v60,2013-07-23 14:44:00,
2013-07-23 10:49:00,78.6,43.6,29.82,West,270,6.0,11.0,29,0.00,,,-99.99,Weather View 32 v60,2013-07-23 14:49:00,
2013-07-23 10:54:00,79.2,42.2,29.82,West,274,7.0,11.0,27,0.00,,,-99.99,Weather View 32 v60,2013-07-23 14:54:00,
2013-07-23 10:59:00,79.7,42.7,29.82,West,270,4.0,11.0,27,0.00,,,-99.99,Weather View 32 v60,2013-07-23 14:59:00,
2013-07-23 11:04:00,80.2,42.1,29.82,West,271,4.0,11.0,26,0.00,,,-99.99,Weather View 32 v60,2013-07-23 15:04:00,
2013-07-23 11:14:00,81.1,40.8,29.82,NNE,16,3.0,11.0,24,0.00,,,-99.99,Weather View 32 v60,2013-07-23 15:14:00,
2013-07-23 11:19:00,81.3,39.9,29.82,West,278,4.0,11.0,23,0.00,,,-99.99,Weather View 32 v60,2013-07-23 15:19:00,
2013-07-23 11:24:00,81.7,39.0,29.82,WNW,295,7.0,11.0,22,0.00,,,-99.99,Weather View 32 v60,2013-07-23 15:24:00,
2013-07-23 11:34:00,82.8,38.7,29.82,WSW,255,6.0,10.0,21,0.00,,,-99.99,Weather View 32 v60,2013-07-23 15:34:00,
2013-07-23 11:39:00,83.3,37.9,29.82,WSW,243,0.0,10.0,20,0.00,,,-99.99,Weather View 32 v60,2013-07-23 15:39:00,
2013-07-23 11:49:00,84.2,38.7,29.82,WNW,291,5.0,9.0,20,0.00,,,-99.99,Weather View 32 v60,2013-07-23 15:49:00,
2013-07-23 11:59:00,84.6,37.6,29.82,SW,233,4.0,8.0,19,0.00,,,-99.99,Weather View 32 v60,2013-07-23 15:59:00,
2013-07-23 12:04:00,85.3,38.2,29.82,WSW,251,0.0,8.0,19,0.00,,,-99.99,Weather View 32 v60,2013-07-23 16:04:00,
2013-07-23 12:09:00,85.5,37.0,29.82,WSW,244,3.0,8.0,18,0.00,,,-99.99,Weather View 32 v60,2013-07-23 16:09:00,
2013-07-23 12:19:00,86.0,37.4,29.82,NW,317,7.0,8.0,18,0.00,,,-99.99,Weather View 32 v60,2013-07-23 16:19:00,
2013-07-23 12:24:00,86.2,37.6,29.82,WSW,255,3.0,8.0,18,0.00,,,-99.99,Weather View 32 v60,2013-07-23 16:24:00,
2013-07-23 12:34:00,86.2,37.6,29.82,NW,318,6.0,9.0,18,0.00,,,-99.99,Weather View 32 v60,2013-07-23 16:34:00,
2013-07-23 12:39:00,86.4,34.7,29.82,WNW,283,5.0,9.0,16,0.00,,,-99.99,Weather View 32 v60,2013-07-23 16:39:00,
2013-07-23 12:49:00,86.7,35.0,29.82,West,277,5.0,11.0,16,0.00,,,-99.99,Weather View 32 v60,2013-07-23 16:49:00,
2013-07-23 12:54:00,87.1,33.7,29.82,West,277,5.0,11.0,15,0.00,,,-99.99,Weather View 32 v60,2013-07-23 16:54:00,
2013-07-23 13:00:00,87.3,33.8,29.82,NNW,329,4.0,11.0,15,0.00,,,-99.99,Weather View 32 v60,2013-07-23 17:00:00,
2013-07-23 13:09:00,87.3,33.8,29.79,WNW,289,7.0,11.0,15,0.00,,,-99.99,Weather View 32 v60,2013-07-23 17:09:00,
2013-07-23 13:19:00,87.3,30.3,29.79,West,275,7.0,11.0,13,0.00,,,-99.99,Weather View 32 v60,2013-07-23 17:19:00,
2013-07-23 13:29:00,87.6,30.6,29.79,WSW,255,4.0,11.0,13,0.00,,,-99.99,Weather View 32 v60,2013-07-23 17:29:00,
2013-07-23 13:39:00,88.0,30.8,29.79,West,275,9.0,11.0,13,0.00,,,-99.99,Weather View 32 v60,2013-07-23 17:39:00,
2013-07-23 13:49:00,88.0,30.8,29.79,WNW,287,6.0,10.0,13,0.00,,,-99.99,Weather View 32 v60,2013-07-23 17:49:00,
2013-07-23 13:59:00,88.5,31.3,29.76,WNW,285,6.0,10.0,13,0.00,,,-99.99,Weather View 32 v60,2013-07-23 17:59:00,
2013-07-23 14:04:00,88.3,31.1,29.76,SW,232,4.0,10.0,13,0.00,,,-99.99,Weather View 32 v60,2013-07-23 18:04:00,
2013-07-23 14:09:00,88.5,31.3,29.76,West,277,6.0,10.0,13,0.00,,,-99.99,Weather View 32 v60,2013-07-23 18:09:00,
2013-07-23 14:19:00,88.9,29.6,29.76,SSE,158,0.0,10.0,12,0.00,,,-99.99,Weather View 32 v60,2013-07-23 18:19:00,
2013-07-23 14:29:00,88.9,29.6,29.76,WNW,291,5.0,10.0,12,0.00,,,-99.99,Weather View 32 v60,2013-07-23 18:29:00,
2013-07-23 14:34:00,88.7,31.4,29.76,WNW,291,6.0,10.0,13,0.00,,,-99.99,Weather View 32 v60,2013-07-23 18:34:00,
2013-07-23 14:39:00,88.5,31.3,29.76,WNW,292,6.0,10.0,13,0.00,,,-99.99,Weather View 32 v60,2013-07-23 18:39:00,
2013-07-23 14:49:00,88.2,31.0,29.76,West,277,4.0,10.0,13,0.00,,,-99.99,Weather View 32 v60,2013-07-23 18:49:00,
2013-07-23 14:59:00,88.2,31.0,29.76,WNW,286,7.0,10.0,13,0.00,,,-99.99,Weather View 32 v60,2013-07-23 18:59:00,
2013-07-23 15:04:00,87.8,30.7,29.76,West,262,5.0,11.0,13,0.00,,,-99.99,Weather View 32 v60,2013-07-23 19:04:00,
2013-07-23 15:14:00,87.4,30.4,29.76,West,263,5.0,11.0,13,0.00,,,-99.99,Weather View 32 v60,2013-07-23 19:14:00,
2013-07-23 15:24:00,87.4,30.4,29.73,WSW,249,4.0,11.0,13,0.00,,,-99.99,Weather View 32 v60,2013-07-23 19:24:00,
2013-07-23 15:34:00,87.1,30.1,29.73,West,262,4.0,11.0,13,0.00,,,-99.99,Weather View 32 v60,2013-07-23 19:34:00,
2013-07-23 15:39:00,87.1,30.1,29.73,WNW,282,7.0,11.0,13,0.00,,,-99.99,Weather View 32 v60,2013-07-23 19:39:00,
2013-07-23 15:49:00,86.5,29.7,29.73,WNW,295,5.0,11.0,13,0.00,,,-99.99,Weather View 32 v60,2013-07-23 19:49:00,
2013-07-23 15:59:00,85.6,29.0,29.73,NNE,15,4.0,11.0,13,0.00,,,-99.99,Weather View 32 v60,2013-07-23 19:59:00,
2013-07-23 16:04:00,85.5,28.9,29.73,West,260,3.0,10.0,13,0.00,,,-99.99,Weather View 32 v60,2013-07-23 20:04:00,
2013-07-23 16:14:00,85.1,28.6,29.73,SE,129,0.0,9.0,13,0.00,,,-99.99,Weather View 32 v60,2013-07-23 20:14:00,
2013-07-23 16:24:00,84.6,28.2,29.73,West,271,4.0,9.0,13,0.00,,,-99.99,Weather View 32 v60,2013-07-23 20:24:00,
2013-07-23 16:34:00,84.0,32.9,29.73,WNW,298,6.0,9.0,16,0.00,,,-99.99,Weather View 32 v60,2013-07-23 20:34:00,
2013-07-23 16:39:00,83.7,32.6,29.73,West,273,4.0,9.0,16,0.00,,,-99.99,Weather View 32 v60,2013-07-23 20:39:00,
2013-07-23 16:44:00,83.5,32.4,29.73,WNW,294,4.0,9.0,16,0.00,,,-99.99,Weather View 32 v60,2013-07-23 20:44:00,
2013-07-23 16:54:00,83.1,32.2,29.73,West,264,4.0,9.0,16,0.00,,,-99.99,Weather View 32 v60,2013-07-23 20:54:00,
2013-07-23 16:59:00,82.8,31.9,29.70,NW,304,5.0,9.0,16,0.00,,,-99.99,Weather View 32 v60,2013-07-23 20:59:00,
2013-07-23 17:04:00,82.6,31.7,29.70,West,262,4.0,9.0,16,0.00,,,-99.99,Weather View 32 v60,2013-07-23 21:04:00,
2013-07-23 17:14:00,82.2,35.7,29.70,WSW,246,4.0,9.0,19,0.00,,,-99.99,Weather View 32 v60,2013-07-23 21:14:00,
2013-07-23 17:19:00,82.2,35.7,29.70,WNW,292,8.0,9.0,19,0.00,,,-99.99,Weather View 32 v60,2013-07-23 21:19:00,
2013-07-23 17:24:00,82.0,35.6,29.70,WSW,254,4.0,9.0,19,0.00,,,-99.99,Weather View 32 v60,2013-07-23 21:24:00,
2013-07-23 17:39:00,81.5,35.2,29.70,West,275,6.0,8.0,19,0.00,,,-99.99,Weather View 32 v60,2013-07-23 21:39:00,
2013-07-23 17:49:00,81.3,36.3,29.70,West,265,4.0,8.0,20,0.00,,,-99.99,Weather View 32 v60,2013-07-23 21:49:00,
2013-07-23 17:59:00,81.1,36.2,29.70,WSW,250,4.0,8.0,20,0.00,,,-99.99,Weather View 32 v60,2013-07-23 21:59:00,
2013-07-23 18:09:00,81.1,36.2,29.70,NNW,341,4.0,8.0,20,0.00,,,-99.99,Weather View 32 v60,2013-07-23 22:09:00,
2013-07-23 18:14:00,81.1,36.2,29.70,WNW,290,3.0,8.0,20,0.00,,,-99.99,Weather View 32 v60,2013-07-23 22:14:00,
2013-07-23 18:19:00,81.0,36.0,29.70,WSW,238,0.0,8.0,20,0.00,,,-99.99,Weather View 32 v60,2013-07-23 22:19:00,
2013-07-23 18:24:00,81.0,36.0,29.70,WSW,257,3.0,8.0,20,0.00,,,-99.99,Weather View 32 v60,2013-07-23 22:24:00,
2013-07-23 18:29:00,81.1,36.2,29.70,West,273,3.0,8.0,20,0.00,,,-99.99,Weather View 32 v60,2013-07-23 22:29:00,
2013-07-23 18:34:00,81.1,36.2,29.70,West,279,3.0,8.0,20,0.00,,,-99.99,Weather View 32 v60,2013-07-23 22:34:00,
2013-07-23 18:49:00,81.3,36.3,29.70,WNW,285,5.0,7.0,20,0.00,,,-99.99,Weather View 32 v60,2013-07-23 22:49:00,
2013-07-23 18:54:00,81.5,36.4,29.70,WNW,300,5.0,7.0,20,0.00,,,-99.99,Weather View 32 v60,2013-07-23 22:54:00,
2013-07-23 18:59:00,81.7,36.6,29.70,WNW,296,4.0,7.0,20,0.00,,,-99.99,Weather View 32 v60,2013-07-23 22:59:00,
2013-07-23 19:09:00,81.7,36.6,29.70,West,281,3.0,7.0,20,0.00,,,-99.99,Weather View 32 v60,2013-07-23 23:09:00,
2013-07-23 19:14:00,81.7,36.6,29.70,NNW,341,6.0,7.0,20,0.00,,,-99.99,Weather View 32 v60,2013-07-23 23:14:00,
2013-07-23 19:24:00,81.5,36.4,29.70,SW,225,4.0,9.0,20,0.00,,,-99.99,Weather View 32 v60,2013-07-23 23:24:00,
2013-07-23 19:34:00,81.1,36.2,29.70,West,279,7.0,9.0,20,0.00,,,-99.99,Weather View 32 v60,2013-07-23 23:34:00,
2013-07-23 19:39:00,81.0,36.0,29.70,West,281,7.0,9.0,20,0.00,,,-99.99,Weather View 32 v60,2013-07-23 23:39:00,
2013-07-23 19:49:00,80.6,35.7,29.70,West,259,4.0,9.0,20,0.00,,,-99.99,Weather View 32 v60,2013-07-23 23:49:00,
2013-07-23 19:54:00,80.4,35.6,29.70,West,280,3.0,9.0,20,0.00,,,-99.99,Weather View 32 v60,2013-07-23 23:54:00,
2013-07-23 19:59:00,80.2,35.4,29.70,West,269,4.0,9.0,20,0.00,,,-99.99,Weather View 32 v60,2013-07-23 23:59:00,
2013-07-23 20:09:00,79.7,35.0,29.70,West,266,0.0,9.0,20,0.00,,,-99.99,Weather View 32 v60,2013-07-24 00:09:00,
2013-07-23 20:29:00,78.8,34.2,29.70,West,276,0.0,7.0,20,0.00,,,-99.99,Weather View 32 v60,2013-07-24 00:29:00,
2013-07-23 20:34:00,78.6,34.1,29.70,West,274,3.0,7.0,20,0.00,,,-99.99,Weather View 32 v60,2013-07-24 00:34:00,
2013-07-23 20:44:00,78.1,33.6,29.70,WNW,285,3.0,6.0,20,0.00,,,-99.99,Weather View 32 v60,2013-07-24 00:44:00,
2013-07-23 20:49:00,77.9,34.7,29.70,WSW,256,0.0,5.0,21,0.00,,,-99.99,Weather View 32 v60,2013-07-24 00:49:00,
2013-07-23 20:56:00,77.7,34.6,29.73,West,270,3.0,5.0,21,0.00,,,-99.99,Weather View 32 v60,2013-07-24 00:56:00,
2013-07-23 21:04:00,77.5,34.4,29.73,West,277,3.0,4.0,21,0.00,,,-99.99,Weather View 32 v60,2013-07-24 01:04:00,
2013-07-23 21:09:00,77.4,34.3,29.73,West,276,0.0,4.0,21,0.00,,,-99.99,Weather View 32 v60,2013-07-24 01:09:00,
2013-07-23 21:19:00,77.0,34.0,29.73,West,276,0.0,4.0,21,0.00,,,-99.99,Weather View 32 v60,2013-07-24 01:19:00,
2013-07-23 21:29:00,76.8,33.8,29.73,West,276,0.0,4.0,21,0.00,,,-99.99,Weather View 32 v60,2013-07-24 01:29:00,
2013-07-23 21:39:00,76.5,33.5,29.73,West,276,0.0,4.0,21,0.00,,,-99.99,Weather View 32 v60,2013-07-24 01:39:00,
2013-07-23 21:49:00,75.9,34.2,29.73,West,276,0.0,4.0,22,0.00,,,-99.99,Weather View 32 v60,2013-07-24 01:49:00,
2013-07-23 21:54:00,75.7,34.1,29.73,WNW,284,0.0,4.0,22,0.00,,,-99.99,Weather View 32 v60,2013-07-24 01:54:00,
2013-07-23 21:59:00,75.7,34.1,29.73,WNW,298,0.0,4.0,22,0.00,,,-99.99,Weather View 32 v60,2013-07-24 01:59:00,
2013-07-23 22:14:00,75.6,33.9,29.73,WNW,298,0.0,4.0,22,0.00,,,-99.99,Weather View 32 v60,2013-07-24 02:14:00,
2013-07-23 22:19:00,75.6,35.1,29.73,West,268,0.0,4.0,23,0.00,,,-99.99,Weather View 32 v60,2013-07-24 02:19:00,
2013-07-23 22:29:00,75.7,35.2,29.73,NNE,12,0.0,5.0,23,0.00,,,-99.99,Weather View 32 v60,2013-07-24 02:29:00,
2013-07-23 22:44:00,75.2,35.8,29.73,NNE,12,0.0,5.0,24,0.00,,,-99.99,Weather View 32 v60,2013-07-24 02:44:00,
2013-07-23 22:49:00,75.0,35.7,29.73,NNE,12,0.0,5.0,24,0.00,,,-99.99,Weather View 32 v60,2013-07-24 02:49:00,
2013-07-23 22:57:00,74.8,35.5,29.73,NNE,12,0.0,5.0,24,0.00,,,-99.99,Weather View 32 v60,2013-07-24 02:57:00,
2013-07-23 23:04:00,74.7,36.4,29.73,NNE,12,0.0,5.0,25,0.00,,,-99.99,Weather View 32 v60,2013-07-24 03:04:00,
2013-07-23 23:09:00,74.7,36.4,29.73,NNE,12,0.0,5.0,25,0.00,,,-99.99,Weather View 32 v60,2013-07-24 03:09:00,
2013-07-23 23:14:00,74.5,36.3,29.73,NNE,12,0.0,5.0,25,0.00,,,-99.99,Weather View 32 v60,2013-07-24 03:14:00,
2013-07-23 23:24:00,74.1,37.0,29.73,NNE,12,0.0,3.0,26,0.00,,,-99.99,Weather View 32 v60,2013-07-24 03:24:00,
2013-07-23 23:29:00,74.1,37.0,29.73,NNE,12,0.0,3.0,26,0.00,,,-99.99,Weather View 32 v60,2013-07-24 03:29:00,
2013-07-23 23:34:00,73.9,36.8,29.73,NNE,12,0.0,3.0,26,0.00,,,-99.99,Weather View 32 v60,2013-07-24 03:34:00,
2013-07-23 23:39:00,73.9,37.8,29.73,NNE,12,0.0,3.0,27,0.00,,,-99.99,Weather View 32 v60,2013-07-24 03:39:00,
2013-07-23 23:49:00,73.8,37.6,29.73,NNE,12,0.0,3.0,27,0.00,,,-99.99,Weather View 32 v60,2013-07-24 03:49:00,
2013-07-23 23:58:00,73.6,38.4,29.73,NNE,12,0.0,3.0,28,0.00,,,-99.99,Weather View 32 v60,2013-07-24 03:58:00,